User: anonymous
Location: Unspecified
(42.0334°N, 93.6656°W)
Time: 03:46:13
(UTC-05:00)
Language:

Iridium 63 - Orbit

View from above orbital plane
View from above orbital plane
View from above satellite
View from above satellite

Ground track
Ground track

The orbit data is extracted from the following two-line orbital elements,

1 25286U 98021B   14231.30557039  .00000242  00000-0  79487-4 0  9319
2 25286 086.3995 295.9226 0002212 112.3331 291.4130 14.34218735856974
Epoch (UTC): 19 August 2014 07:20:01
Eccentricity: 0.0002212
inclination: 86.3995°
perigee height: 776 km
apogee height: 779 km
right ascension of ascending node: 295.9226°
argument of perigee: 112.3331°
revolutions per day: 14.34218735
mean anomaly at epoch: 291.4130°
orbit number at epoch: 85697

The dashed part of the orbit path shows where the satellite is in the earth's shadow,  

DLR